TimeMDT,TemperatureF,Dew PointF,Humidity,Sea Level PressureIn,VisibilityMPH,Wind Direction,Wind SpeedMPH,Gust SpeedMPH,PrecipitationIn,Events,Conditions,WindDirDegrees,DateUTC
12:53 AM,69.1,32.0,25,29.90,10.0,West,3.5,-,N/A,,Clear,260,2013-08-04 06:53:00
1:53 AM,66.0,32.0,28,29.91,10.0,SW,3.5,-,N/A,,Clear,230,2013-08-04 07:53:00
2:53 AM,64.9,37.0,36,29.91,10.0,Calm,Calm,-,N/A,,Clear,0,2013-08-04 08:53:00
3:53 AM,60.1,39.0,46,29.93,10.0,South,4.6,-,N/A,,Clear,190,2013-08-04 09:53:00
4:53 AM,57.9,42.1,56,29.93,10.0,SSW,3.5,-,N/A,,Clear,200,2013-08-04 10:53:00
5:53 AM,57.9,42.1,56,29.94,10.0,SW,3.5,-,N/A,,Clear,220,2013-08-04 11:53:00
6:53 AM,57.0,43.0,59,29.96,10.0,Calm,Calm,-,N/A,,Clear,0,2013-08-04 12:53:00
7:53 AM,60.1,44.1,55,29.97,10.0,SW,3.5,-,N/A,,Clear,220,2013-08-04 13:53:00
8:53 AM,64.9,44.1,47,29.98,10.0,Calm,Calm,-,N/A,,Clear,0,2013-08-04 14:53:00
9:53 AM,69.1,43.0,39,29.98,10.0,Calm,Calm,-,N/A,,Clear,0,2013-08-04 15:53:00
10:53 AM,73.9,44.1,34,29.97,10.0,Calm,Calm,-,N/A,,Clear,0,2013-08-04 16:53:00
11:53 AM,78.1,43.0,29,29.95,10.0,WNW,4.6,-,N/A,,Clear,290,2013-08-04 17:53:00
12:53 PM,82.0,39.9,22,29.93,10.0,WNW,5.8,-,N/A,,Clear,300,2013-08-04 18:53:00
1:53 PM,86.0,45.0,24,29.92,10.0,West,9.2,-,N/A,,Clear,280,2013-08-04 19:53:00
2:53 PM,91.0,39.9,17,29.89,10.0,West,12.7,-,N/A,,Clear,280,2013-08-04 20:53:00
3:53 PM,93.9,32.0,11,29.87,10.0,WNW,10.4,-,N/A,,Clear,300,2013-08-04 21:53:00
4:53 PM,93.9,32.0,11,29.85,10.0,NNW,10.4,-,N/A,,Clear,340,2013-08-04 22:53:00
5:53 PM,95.0,30.0,10,29.83,10.0,NW,11.5,16.1,N/A,,Clear,320,2013-08-04 23:53:00
6:53 PM,93.0,30.9,11,29.82,10.0,NW,12.7,-,N/A,,Clear,310,2013-08-05 00:53:00
7:53 PM,91.9,30.9,11,29.81,10.0,NW,12.7,-,N/A,,Clear,320,2013-08-05 01:53:00
8:53 PM,87.1,33.1,15,29.81,10.0,NW,6.9,-,N/A,,Clear,310,2013-08-05 02:53:00
9:53 PM,82.9,35.1,18,29.82,10.0,NE,3.5,-,N/A,,Clear,50,2013-08-05 03:53:00
10:53 PM,75.0,35.1,23,29.83,10.0,SSW,3.5,-,N/A,,Clear,200,2013-08-05 04:53:00
11:53 PM,73.9,39.9,29,29.83,10.0,SE,4.6,-,N/A,,Clear,130,2013-08-05 05:53:00